Home   Weather   Wallisellen   Past weeks

Flag for Switzerland Past Weather in Wallisellen, Zurich, Switzerland — Yesterday and Last 2 Weeks

Now
49 °F

Cool.


Feels Like: 49 °F
Forecast: 44 / 66 °F
Wind: No wind

Location: Zuerich-Fluntern

Current Time: Oct 19, 2017 at 6:03:16 am

Latest Report: Oct 19, 2017 at 5:00 am


Visibility: N/A

Pressure: 30.01 "Hg

Humidity: 82%

Dew Point: 44 °F

Location of WallisellenLocation

Past Weather in Wallisellen — Graph

°F

Wallisellen Temperature Yesterday

Maximum temperature yesterday: 67 °F (at 4:00 pm)
Minimum temperature yesterday: 48 °F (at 7:00 am)
Average temperature yesterday: 56 °F

High & Low Weather Summary for the Past Weeks

 TemperatureHumidityPressure
High72 °F (Oct 16, 4:00 pm)99% (Oct 15, 10:00 am)30.41 "Hg (Oct 15, 10:00 am)
Low41 °F (Oct 7, 8:00 am)30% (Oct 5, 7:00 pm)29.94 "Hg (Oct 5, 5:00 pm)
Average54 °F78%30.22 "Hg
* Reported Oct 4 4:00 am — Oct 19 4:00 am, Wallisellen. Weather by CustomWeather, © 2017

Note: Actual official high and low records may vary slightly from our data, if they occured in-between our weather recording intervals... More about our weather records

Advertising

Wallisellen Weather History for the Previous 24 Hours

Scroll right to see more
 ConditionsComfort  
Time TempWeatherWind HumidityBarometerVisibility
4:00 am
Thu, Oct 19
49 °FCool.1 mph83%30.01 "HgN/A
3:00 am49 °FCool.2 mph83%30.01 "HgN/A
2:00 am49 °FCool.No wind82%30.02 "HgN/A
1:00 am50 °FCool.1 mph81%30.02 "HgN/A
12:00 am52 °FCool.1 mph80%30.01 "HgN/A
11:00 pm
Wed, Oct 18
53 °FCool.No wind79%30.01 "HgN/A
10:00 pm54 °FCool.2 mph76%30.00 "HgN/A
9:00 pm54 °FCool.1 mph76%30.00 "HgN/A
8:00 pm56 °FCool.1 mph73%29.99 "HgN/A
7:00 pm57 °FCool.1 mph70%29.98 "HgN/A
6:00 pm64 °FMild.1 mph52%29.95 "HgN/A
5:00 pm66 °FMild.3 mph44%29.94 "HgN/A
4:00 pm67 °FMild.3 mph44%29.95 "HgN/A
3:00 pm66 °FMild.5 mph49%29.97 "HgN/A
2:00 pm64 °FSunny.3 mph54%29.99 "HgN/A
1:00 pm61 °FRefreshingly cool.3 mph58%30.02 "HgN/A
12:00 pm60 °FCool.3 mph67%30.04 "HgN/A
11:00 am54 °FCool.2 mph78%30.07 "HgN/A
10:00 am51 °FCool.No wind87%30.08 "HgN/A
9:00 am48 °FCool.No wind91%30.09 "HgN/A
8:00 am48 °FPassing clouds.1 mph89%30.09 "HgN/A
7:00 am48 °FCool.2 mph89%30.09 "HgN/A
6:00 am49 °FCool.2 mph85%30.09 "HgN/A
Weather by CustomWeather, © 2017

See weather overview